Wind_Speed
27 26 28 30 31 33 34 36 37 38 37 36 37 38 37 34 32 31 30 30 30 29 27 26 25 25 24 23 23 25 26 26 24 23 23 23 23 23 23 22 22 22 23
31 30 30 31 32 34 36 38 39 38 38 38 39 39 39 37 35 33 33 33 33 33 31 28 27 27 27 26 25 25 25 25 24 23 22 23 23 23 23 22 22 22 23
32 32 31 31 32 34 37 39 40 39 39 39 40 41 40 39 37 36 35 35 35 36 33 30 29 29 28 27 26 26 25 25 25 25 24 23 22 23 22 22 22 23 23
29 29 30 30 32 35 37 40 41 42 42 42 43 43 41 39 38 37 36 35 33 31 30 30 30 29 29 28 27 27 26 27 28 27 25 24 23 22 22 22 22 23 23
29 31 32 32 33 33 36 39 41 44 44 43 42 41 39 38 37 36 36 36 31 27 27 28 29 29 29 28 28 29 29 30 30 29 27 25 23 22 23 22 22 23 22
33 34 36 36 36 36 37 38 40 42 43 42 39 39 36 35 36 36 37 35 30 28 27 29 30 30 30 30 31 32 32 33 33 31 29 26 25 24 23 22 22 21 21
35 36 37 39 40 40 40 39 40 41 40 39 37 37 37 37 37 36 35 33 31 29 29 31 32 32 32 34 34 35 35 34 34 33 31 28 26 25 24 22 21 20 20
36 37 38 39 39 38 38 38 39 40 38 35 34 34 35 36 35 35 35 33 33 32 32 33 34 35 36 37 37 36 35 34 34 34 32 30 28 27 25 23 21 20 20
34 34 33 32 31 32 33 36 36 34 32 30 29 29 30 30 31 31 32 32 32 32 34 36 37 37 37 36 35 34 33 33 32 32 32 31 29 28 25 23 21 20 19
31 31 29 28 27 28 29 30 30 31 31 28 27 27 27 28 29 30 30 31 31 31 32 33 33 33 33 33 33 33 32 32 32 31 30 30 30 28 26 23 22 20 19
32 32 32 31 30 29 28 27 27 25 25 24 25 26 26 28 29 30 30 30 30 30 31 30 30 31 31 31 31 31 31 31 32 31 30 31 30 28 27 25 23 21 20
29 29 29 29 27 26 24 23 21 21 21 22 24 27 28 30 31 32 32 32 31 31 31 30 30 30 30 29 29 29 30 30 30 30 30 31 31 30 28 27 25 24 22
27 26 27 27 26 24 23 22 21 21 23 25 27 29 30 31 32 32 33 34 34 34 33 32 31 30 29 29 29 29 30 30 29 29 29 31 32 31 30 28 27 25 24
28 29 29 30 30 29 28 27 27 28 29 31 32 33 33 34 34 34 34 35 36 36 35 33 32 32 31 30 29 29 30 28 27 28 28 30 32 32 31 29 27 25 25
31 32 32 33 34 34 33 34 33 33 34 34 35 35 35 36 36 37 37 36 36 37 36 35 34 33 32 31 29 30 29 28 27 27 27 29 30 31 31 29 27 25 25
32 33 34 36 36 37 37 38 38 38 38 38 38 38 38 38 39 39 38 37 37 37 36 35 34 34 33 31 30 29 29 28 27 27 27 27 29 30 30 29 27 25 24
31 33 35 36 37 38 39 39 39 39 40 41 41 41 41 41 41 40 39 38 38 37 36 34 33 33 33 30 29 28 27 26 27 27 28 28 29 29 29 29 28 27 27
32 34 34 35 35 36 36 37 37 38 39 40 41 42 43 43 42 42 40 39 38 37 36 34 33 32 31 30 28 27 26 26 26 26 26 27 27 28 28 28 28 28 28
30 30 30 30 31 31 31 32 33 34 36 38 39 40 40 40 40 40 39 38 38 37 36 36 34 33 32 31 30 29 27 26 26 25 25 25 26 26 27 27 28 28 28
25 26 26 27 28 28 28 29 29 29 30 31 33 33 34 34 34 34 35 35 35 35 36 36 36 36 35 35 34 32 31 30 29 28 28 28 28 27 27 27 27 28 27
21 22 23 24 25 26 26 25 24 23 22 23 24 25 25 26 27 28 29 30 31 32 33 34 35 36 37 38 38 37 36 35 34 33 33 32 32 31 31 30 30 30 29
18 20 21 22 23 23 22 21 20 19 18 17 17 18 19 20 22 24 26 27 28 28 29 30 31 32 34 36 37 39 40 40 39 38 37 37 36 36 35 35 34 33 32
20 20 21 20 19 19 18 18 17 18 18 17 16 16 17 19 21 23 23 25 26 26 27 28 28 29 30 31 32 35 38 41 42 42 42 41 40 39 39 39 37 36 35
20 19 18 17 16 15 15 15 16 16 17 17 17 17 18 20 22 23 23 24 25 26 26 27 27 27 26 26 26 29 32 35 37 39 41 41 41 41 40 40 40 40 39
18 17 16 16 15 14 14 14 15 16 18 20 21 22 22 22 24 25 26 27 27 28 28 28 28 27 26 25 25 25 25 26 27 29 31 33 35 36 37 37 37 37 37
15 15 15 15 15 15 15 16 17 18 20 22 23 24 26 27 28 29 31 32 33 34 34 33 33 33 31 30 29 28 27 26 28 29 29 28 29 30 31 32 33 34 34
Wind_Direction
254 248 244 245 247 251 255 258 260 262 264 266 268 270 272 275 278 278 272 269 266 263 262 265 269 273 276 280 287 293 293 289 287 289 291 293 295 295 295 294 291 289 289
256 251 246 245 246 248 250 252 255 258 260 262 265 268 269 269 273 274 273 271 267 261 259 264 270 274 278 282 288 293 294 292 291 292 293 294 295 294 294 294 291 289 288
259 257 254 250 248 247 248 250 253 256 258 260 263 265 267 268 270 271 273 275 270 259 252 260 268 272 276 281 287 292 292 289 290 293 294 295 294 294 294 293 292 290 287
255 254 254 252 251 251 252 253 255 257 258 259 259 262 263 264 267 270 271 271 267 257 250 258 267 270 274 278 284 287 288 287 288 291 292 291 290 290 293 293 292 292 288
254 255 258 260 259 257 257 258 259 258 257 256 256 258 260 262 266 269 271 269 262 254 255 263 268 269 271 275 280 283 284 285 287 289 290 287 286 286 290 293 293 292 289
256 258 260 262 263 262 261 262 262 260 256 254 255 257 259 263 266 266 266 264 261 258 259 264 267 268 271 275 278 281 282 283 284 286 286 283 281 283 287 290 291 289 286
257 259 261 264 265 263 262 261 260 260 257 256 258 259 261 264 267 268 266 265 263 260 259 262 266 269 273 277 279 281 281 280 280 280 279 276 274 276 281 285 287 285 282
260 262 264 265 263 261 259 259 260 261 260 260 262 263 264 264 268 267 269 270 268 264 261 262 266 271 275 278 280 281 280 279 277 276 273 269 266 268 274 279 282 282 279
257 260 262 264 263 261 261 262 263 264 262 264 266 267 265 265 266 268 268 268 268 266 265 266 269 272 276 279 281 280 279 277 275 272 267 262 260 262 267 273 276 277 276
254 255 257 261 263 265 269 268 268 267 264 264 262 261 261 263 264 266 267 269 270 271 272 272 272 273 275 277 278 277 276 276 274 269 262 256 255 257 262 266 270 273 271
254 254 257 262 266 268 269 269 268 265 262 257 256 257 259 262 265 268 269 271 272 272 272 272 272 273 273 274 274 275 275 274 271 265 258 252 251 253 257 261 264 267 268
254 256 258 262 265 268 269 267 264 259 256 257 262 264 266 267 269 269 269 269 270 271 271 271 272 272 273 273 273 274 275 274 269 261 254 248 247 250 254 257 260 263 265
255 259 261 262 264 267 267 265 264 263 263 268 271 272 272 272 272 271 269 267 267 269 270 270 272 272 272 272 273 274 274 271 265 258 252 246 245 248 252 256 259 260 261
259 263 263 264 265 268 269 269 269 269 270 272 273 273 273 273 273 272 271 269 267 268 270 270 271 271 271 272 272 273 272 268 263 257 250 246 245 248 250 253 256 256 256
263 265 265 266 267 268 269 270 271 270 271 272 272 272 271 271 272 272 271 270 269 269 269 269 269 269 270 270 271 272 269 263 259 255 249 245 244 247 249 251 251 252 253
265 268 270 271 271 271 270 269 269 269 270 270 270 270 269 269 270 270 270 268 267 267 267 266 265 266 267 267 269 270 265 260 255 251 247 243 242 243 246 247 246 248 251
271 276 279 278 276 274 272 270 268 268 267 266 266 266 266 266 266 266 266 265 263 264 264 263 263 263 263 263 265 265 262 258 254 250 247 245 244 243 245 245 246 248 249
277 279 279 277 275 273 271 269 268 266 265 264 263 262 262 262 262 262 263 262 261 260 260 260 260 261 261 260 260 259 256 254 251 249 247 247 246 245 245 246 248 249 247
275 276 276 275 274 274 274 273 271 268 265 263 262 262 262 262 262 262 262 260 260 259 259 258 258 259 259 258 257 255 253 252 250 248 246 246 246 245 245 246 247 248 247
273 276 278 279 279 279 280 280 277 273 269 265 263 262 262 262 262 263 263 262 262 261 260 260 258 257 256 256 256 255 254 253 251 249 248 246 245 245 245 246 246 247 246
279 283 285 285 284 283 283 283 281 278 275 271 268 265 262 261 260 259 260 262 262 262 262 262 261 258 256 255 255 254 255 254 252 251 250 249 249 247 247 248 247 247 247
286 291 292 290 287 286 284 282 280 278 276 276 272 267 264 260 256 257 259 261 260 258 258 257 258 258 256 255 256 256 255 254 253 252 251 250 250 251 250 250 251 251 251
290 294 295 293 290 288 285 281 276 273 272 271 268 265 261 256 255 257 259 260 261 262 263 263 262 260 260 260 261 259 258 256 255 253 252 251 251 252 252 252 254 255 257
287 290 290 289 287 286 283 278 274 269 265 262 260 258 258 258 259 260 262 266 269 271 273 273 272 270 268 266 264 263 261 259 258 257 256 254 252 253 254 255 257 259 260
282 283 283 283 284 285 286 282 276 272 269 267 266 263 262 264 263 262 263 265 268 271 273 272 271 270 269 267 266 263 262 264 263 261 260 260 258 257 258 259 260 261 261
283 282 282 282 282 284 286 288 286 284 282 281 278 275 271 267 264 263 261 261 263 266 268 267 266 266 266 265 264 261 259 259 263 265 266 267 267 266 264 263 263 262 262
Height
5878 5881 5882 5883 5884 5885 5884 5883 5882 5881 5881 5881 5881 5880 5880 5880 5881 5881 5881 5881 5882 5882 5881 5881 5881 5880 5879 5879 5879 5878 5877 5877 5875 5874 5872 5871 5869 5867 5865 5864 5863 5862 5860
5870 5872 5874 5875 5876 5876 5876 5874 5873 5873 5873 5873 5872 5872 5871 5872 5873 5874 5873 5874 5874 5875 5875 5874 5874 5873 5873 5873 5873 5872 5871 5871 5871 5870 5867 5865 5864 5862 5860 5859 5858 5857 5855
5862 5864 5865 5866 5867 5867 5866 5865 5865 5864 5864 5864 5863 5863 5863 5864 5865 5865 5866 5866 5865 5865 5866 5868 5867 5867 5866 5866 5866 5866 5865 5864 5865 5864 5863 5861 5859 5857 5856 5854 5853 5852 5850
5854 5855 5856 5857 5857 5858 5858 5857 5856 5856 5855 5854 5853 5853 5854 5855 5856 5857 5857 5857 5857 5857 5858 5860 5860 5860 5860 5860 5859 5859 5859 5858 5858 5858 5857 5856 5854 5852 5850 5849 5848 5846 5845
5845 5846 5847 5847 5848 5848 5848 5848 5847 5846 5845 5844 5843 5843 5844 5846 5847 5848 5849 5850 5851 5851 5851 5852 5852 5852 5853 5853 5853 5853 5852 5852 5851 5851 5850 5850 5849 5847 5846 5844 5843 5841 5840
5835 5836 5837 5837 5838 5838 5838 5838 5838 5837 5836 5835 5835 5835 5835 5837 5839 5840 5841 5842 5843 5843 5843 5843 5844 5845 5845 5845 5845 5845 5845 5845 5845 5844 5844 5843 5843 5842 5841 5839 5837 5836 5835
5826 5827 5827 5827 5828 5828 5828 5828 5828 5828 5828 5827 5827 5827 5828 5830 5831 5832 5833 5834 5834 5835 5835 5836 5836 5837 5837 5837 5837 5838 5837 5837 5837 5837 5836 5836 5836 5836 5835 5833 5832 5830 5830
5816 5817 5818 5818 5818 5818 5818 5819 5819 5818 5818 5819 5820 5820 5822 5823 5824 5825 5825 5826 5826 5827 5827 5828 5828 5828 5829 5828 5828 5829 5829 5829 5829 5828 5828 5828 5829 5830 5829 5828 5826 5825 5825
5808 5808 5809 5809 5809 5810 5810 5810 5810 5810 5810 5811 5812 5814 5815 5816 5817 5817 5817 5818 5818 5819 5819 5820 5820 5820 5820 5819 5819 5819 5819 5819 5819 5820 5820 5820 5821 5823 5823 5822 5821 5821 5820
5799 5800 5801 5801 5801 5802 5802 5802 5801 5802 5803 5804 5806 5807 5808 5809 5809 5809 5809 5810 5810 5810 5811 5811 5811 5811 5811 5811 5810 5810 5810 5810 5810 5811 5811 5812 5814 5816 5816 5816 5815 5815 5815
5791 5792 5793 5793 5794 5794 5794 5794 5794 5795 5796 5797 5799 5800 5801 5802 5802 5802 5802 5801 5801 5801 5802 5802 5802 5802 5802 5802 5802 5801 5801 5801 5801 5802 5803 5805 5807 5808 5809 5810 5810 5810 5810
5783 5784 5785 5786 5786 5786 5787 5787 5787 5788 5789 5791 5792 5793 5793 5793 5793 5793 5793 5793 5793 5793 5794 5794 5794 5794 5793 5793 5793 5792 5792 5792 5792 5793 5795 5797 5799 5801 5802 5803 5803 5804 5804
5775 5776 5777 5778 5779 5779 5780 5780 5781 5782 5783 5784 5784 5785 5785 5784 5784 5783 5783 5783 5784 5785 5785 5785 5785 5785 5785 5785 5784 5784 5783 5783 5784 5785 5787 5789 5791 5793 5794 5795 5796 5797 5798
5767 5768 5769 5770 5771 5772 5772 5773 5774 5775 5775 5776 5776 5776 5775 5775 5774 5774 5773 5773 5774 5775 5775 5775 5776 5776 5776 5776 5776 5775 5775 5775 5776 5777 5779 5781 5783 5785 5787 5788 5789 5790 5791
5759 5760 5761 5762 5762 5763 5763 5764 5765 5765 5766 5766 5766 5765 5765 5764 5764 5764 5763 5763 5764 5765 5765 5766 5766 5767 5767 5767 5767 5767 5767 5767 5768 5769 5771 5773 5775 5778 5780 5781 5783 5784 5785
5750 5751 5752 5752 5752 5753 5753 5754 5754 5754 5754 5755 5755 5754 5754 5754 5753 5753 5753 5753 5754 5755 5755 5756 5757 5757 5758 5758 5758 5759 5759 5760 5761 5762 5763 5765 5767 5770 5772 5774 5776 5777 5778
5741 5741 5741 5741 5741 5741 5741 5741 5741 5741 5741 5742 5742 5742 5742 5742 5742 5742 5743 5743 5744 5745 5746 5747 5748 5748 5749 5750 5750 5751 5752 5752 5754 5755 5757 5758 5760 5762 5764 5766 5768 5770 5772
5732 5732 5731 5730 5730 5729 5729 5729 5729 5729 5728 5729 5729 5729 5729 5730 5730 5730 5731 5733 5734 5735 5736 5738 5739 5740 5741 5741 5742 5743 5744 5745 5747 5748 5750 5751 5753 5755 5757 5759 5761 5762 5764
5723 5722 5722 5721 5720 5719 5719 5718 5717 5716 5716 5716 5716 5716 5717 5718 5718 5719 5720 5722 5723 5724 5726 5728 5729 5731 5732 5733 5734 5735 5737 5738 5740 5741 5743 5744 5746 5748 5749 5751 5753 5754 5756
5715 5714 5713 5712 5711 5710 5709 5708 5707 5705 5705 5704 5705 5705 5706 5707 5708 5709 5710 5712 5713 5714 5716 5718 5719 5721 5722 5724 5725 5727 5728 5730 5732 5734 5736 5737 5739 5741 5742 5744 5745 5747 5748
5707 5706 5705 5704 5703 5702 5701 5699 5698 5697 5696 5696 5696 5697 5698 5699 5700 5701 5702 5703 5704 5705 5706 5708 5709 5710 5712 5714 5715 5717 5719 5721 5723 5725 5727 5729 5731 5733 5735 5737 5738 5739 5741
5701 5700 5699 5697 5696 5695 5693 5692 5691 5691 5691 5691 5691 5691 5692 5692 5693 5694 5695 5696 5697 5697 5698 5699 5700 5701 5702 5704 5705 5706 5708 5711 5713 5715 5717 5719 5722 5724 5726 5728 5729 5731 5732
5694 5694 5693 5692 5690 5689 5688 5687 5687 5686 5686 5686 5686 5687 5687 5688 5688 5689 5689 5689 5690 5690 5690 5691 5692 5693 5694 5695 5696 5697 5698 5700 5702 5704 5706 5709 5711 5713 5716 5718 5720 5721 5723
5689 5688 5688 5687 5686 5685 5684 5684 5683 5682 5682 5682 5682 5683 5683 5683 5684 5683 5683 5683 5683 5683 5684 5684 5684 5685 5686 5687 5687 5688 5689 5690 5692 5694 5696 5698 5700 5702 5704 5706 5709 5710 5712
5684 5683 5683 5683 5682 5681 5681 5680 5680 5679 5679 5678 5678 5678 5678 5678 5678 5677 5677 5676 5676 5676 5677 5677 5677 5678 5679 5679 5680 5680 5681 5682 5683 5684 5685 5687 5689 5691 5693 5695 5696 5698 5700
5679 5678 5678 5678 5678 5677 5676 5676 5675 5674 5674 5673 5672 5672 5671 5671 5671 5670 5670 5669 5668 5668 5668 5668 5669 5669 5670 5671 5672 5673 5674 5675 5675 5676 5677 5678 5679 5681 5682 5684 5685 5686 5688